Time,TemperatureF,DewpointF,PressureIn,WindDirection,WindDirectionDegrees,WindSpeedMPH,WindSpeedGustMPH,Humidity,HourlyPrecipIn,Conditions,Clouds,dailyrainin,SoftwareType,DateUTC
2013-02-23 00:01:00,46.0,37.0,30.13,NNE,15,0.0,2.0,72,0.00,,,0.00,,2013-02-23 08:01:00,
2013-02-23 00:11:00,46.0,37.0,30.13,NNE,15,0.0,2.0,72,0.00,,,0.00,,2013-02-23 08:11:00,
2013-02-23 00:21:00,46.0,38.0,30.13,NNE,15,1.0,3.0,73,0.00,,,0.00,,2013-02-23 08:21:00,
2013-02-23 00:31:00,45.0,38.0,30.13,NNE,15,0.0,2.0,75,0.00,,,0.00,,2013-02-23 08:31:00,
2013-02-23 00:41:00,45.0,38.0,30.13,NNE,15,0.0,2.0,75,0.00,,,0.00,,2013-02-23 08:41:00,
2013-02-23 00:52:00,45.0,38.0,30.12,NNE,15,0.0,2.0,75,0.00,,,0.00,,2013-02-23 08:52:00,
2013-02-23 01:01:00,46.0,37.0,30.11,NNE,15,0.0,1.0,72,0.00,,,0.00,,2013-02-23 09:01:00,
2013-02-23 01:11:00,46.0,37.0,30.11,NNE,15,0.0,1.0,72,0.00,,,0.00,,2013-02-23 09:11:00,
2013-02-23 01:21:00,45.0,37.0,30.11,NNE,15,0.0,1.0,74,0.00,,,0.00,,2013-02-23 09:21:00,
2013-02-23 01:31:00,45.0,37.0,30.11,NNE,15,0.0,2.0,74,0.00,,,0.00,,2013-02-23 09:31:00,
2013-02-23 01:41:00,45.0,37.0,30.11,NNE,15,0.0,2.0,74,0.00,,,0.00,,2013-02-23 09:41:00,
2013-02-23 01:51:00,45.0,37.0,30.10,NNE,15,0.0,2.0,72,0.00,,,0.00,,2013-02-23 09:51:00,
2013-02-23 02:01:00,45.0,37.0,30.10,NNE,15,0.0,2.0,72,0.00,,,0.00,,2013-02-23 10:01:00,
2013-02-23 02:11:00,45.0,37.0,30.10,NNE,15,0.0,2.0,72,0.00,,,0.00,,2013-02-23 10:11:00,
2013-02-23 02:21:00,46.0,36.0,30.10,NNE,15,1.0,2.0,68,0.00,,,0.00,,2013-02-23 10:21:00,
2013-02-23 02:31:00,46.0,36.0,30.09,NNE,15,0.0,1.0,68,0.00,,,0.00,,2013-02-23 10:31:00,
2013-02-23 02:41:00,46.0,36.0,30.09,NNE,15,0.0,1.0,68,0.00,,,0.00,,2013-02-23 10:41:00,
2013-02-23 02:51:00,45.0,35.0,30.09,NNE,15,0.0,1.0,68,0.00,,,0.00,,2013-02-23 10:51:00,
2013-02-23 03:02:00,44.0,36.0,30.09,NNE,15,0.0,1.0,72,0.00,,,0.00,,2013-02-23 11:02:00,
2013-02-23 03:11:00,44.0,36.0,30.09,NNE,15,0.0,1.0,72,0.00,,,0.00,,2013-02-23 11:11:00,
2013-02-23 03:21:00,44.0,36.0,30.08,NNE,15,0.0,3.0,72,0.00,,,0.00,,2013-02-23 11:21:00,
2013-02-23 03:32:00,44.0,35.0,30.07,NNE,15,1.0,3.0,71,0.00,,,0.00,,2013-02-23 11:32:00,
2013-02-23 03:41:00,44.0,35.0,30.07,NNE,15,1.0,3.0,71,0.00,,,0.00,,2013-02-23 11:41:00,
2013-02-23 03:52:00,45.0,35.0,30.07,NNE,15,0.0,1.0,69,0.00,,,0.00,,2013-02-23 11:52:00,
2013-02-23 04:01:00,46.0,36.0,30.07,NNE,15,0.0,2.0,68,0.00,,,0.00,,2013-02-23 12:01:00,
2013-02-23 04:11:00,46.0,36.0,30.07,NNE,15,0.0,2.0,68,0.00,,,0.00,,2013-02-23 12:11:00,
2013-02-23 04:21:00,45.0,35.0,30.07,NNE,15,0.0,1.0,69,0.00,,,0.00,,2013-02-23 12:21:00,
2013-02-23 04:32:00,45.0,35.0,30.07,NNE,15,0.0,1.0,69,0.00,,,0.00,,2013-02-23 12:32:00,
2013-02-23 04:42:00,45.0,35.0,30.07,NNE,15,0.0,1.0,69,0.00,,,0.00,,2013-02-23 12:42:00,
2013-02-23 04:52:00,45.0,35.0,30.08,NNE,12,1.0,2.0,69,0.00,,,0.00,,2013-02-23 12:52:00,
2013-02-23 05:01:00,45.0,36.0,30.08,NNW,327,4.0,7.0,71,0.00,,,0.00,,2013-02-23 13:01:00,
2013-02-23 05:11:00,45.0,36.0,30.08,NNW,327,4.0,7.0,71,0.00,,,0.00,,2013-02-23 13:11:00,
2013-02-23 05:22:00,45.0,36.0,30.08,North,360,0.0,3.0,70,0.00,,,0.00,,2013-02-23 13:22:00,
2013-02-23 05:31:00,44.0,36.0,30.08,NW,325,1.0,4.0,74,0.00,,,0.00,,2013-02-23 13:31:00,
2013-02-23 05:41:00,44.0,36.0,30.08,NW,325,1.0,4.0,74,0.00,,,0.00,,2013-02-23 13:41:00,
2013-02-23 05:51:00,43.0,36.0,30.08,NW,320,0.0,1.0,75,0.00,,,0.00,,2013-02-23 13:51:00,
2013-02-23 06:02:00,42.0,35.0,30.07,North,9,1.0,4.0,77,0.00,,,0.00,,2013-02-23 14:02:00,
2013-02-23 06:11:00,42.0,35.0,30.07,North,9,1.0,4.0,77,0.00,,,0.00,,2013-02-23 14:11:00,
2013-02-23 06:21:00,42.0,34.0,30.06,North,9,0.0,1.0,74,0.00,,,0.00,,2013-02-23 14:21:00,
2013-02-23 06:32:00,41.0,34.0,30.06,North,10,1.0,3.0,76,0.00,,,0.00,,2013-02-23 14:32:00,
2013-02-23 06:41:00,41.0,34.0,30.06,North,10,1.0,3.0,76,0.00,,,0.00,,2013-02-23 14:41:00,
2013-02-23 06:52:00,41.0,34.0,30.06,North,10,1.0,3.0,76,0.00,,,0.00,,2013-02-23 14:52:00,
2013-02-23 07:01:00,41.0,34.0,30.06,North,10,1.0,3.0,76,0.00,,,0.00,,2013-02-23 15:01:00,
2013-02-23 07:11:00,41.0,34.0,30.06,North,10,1.0,3.0,76,0.00,,,0.00,,2013-02-23 15:11:00,
2013-02-23 07:31:00,49.0,37.0,30.07,North,10,0.0,1.0,63,0.00,,,0.00,,2013-02-23 15:31:00,
2013-02-23 07:41:00,49.0,37.0,30.07,North,10,0.0,1.0,63,0.00,,,0.00,,2013-02-23 15:41:00,
2013-02-23 07:51:00,49.0,37.0,30.07,North,9,0.0,1.0,63,0.00,,,0.00,,2013-02-23 15:51:00,
2013-02-23 08:01:00,50.0,38.0,30.08,North,9,0.0,1.0,63,0.00,,,0.00,,2013-02-23 16:01:00,
2013-02-23 08:42:00,50.0,38.0,30.08,North,5,1.0,2.0,62,0.00,,,0.00,,2013-02-23 16:42:00,
2013-02-23 08:51:00,53.0,36.0,30.08,SSE,158,0.0,3.0,53,0.00,,,0.00,,2013-02-23 16:51:00,
2013-02-23 09:01:00,55.0,37.0,30.07,SSE,164,2.0,4.0,51,0.00,,,0.00,,2013-02-23 17:01:00,
2013-02-23 09:21:00,55.0,36.0,30.07,SE,141,1.0,4.0,49,0.00,,,0.00,,2013-02-23 17:21:00,
2013-02-23 09:31:00,56.0,37.0,30.07,SSE,157,1.0,3.0,49,0.00,,,0.00,,2013-02-23 17:31:00,
2013-02-23 09:41:00,56.0,37.0,30.07,SSE,157,1.0,3.0,49,0.00,,,0.00,,2013-02-23 17:41:00,
2013-02-23 09:52:00,58.0,40.0,30.05,SE,142,2.0,4.0,51,0.00,,,0.00,,2013-02-23 17:52:00,
2013-02-23 10:01:00,58.0,43.0,30.06,SSW,195,3.0,7.0,57,0.00,,,0.00,,2013-02-23 18:01:00,
2013-02-23 10:12:00,58.0,43.0,30.06,SSW,195,3.0,7.0,57,0.00,,,0.00,,2013-02-23 18:12:00,
2013-02-23 10:21:00,60.0,44.0,30.06,WSW,255,4.0,7.0,55,0.00,,,0.00,,2013-02-23 18:21:00,
2013-02-23 10:31:00,61.0,43.0,30.06,WNW,286,3.0,8.0,52,0.00,,,0.00,,2013-02-23 18:31:00,
2013-02-23 10:41:00,61.0,43.0,30.06,WNW,286,3.0,8.0,52,0.00,,,0.00,,2013-02-23 18:41:00,
2013-02-23 10:51:00,60.0,47.0,30.06,WSW,244,4.0,9.0,61,0.00,,,0.00,,2013-02-23 18:51:00,
2013-02-23 11:01:00,60.0,47.0,30.06,WSW,242,6.0,10.0,62,0.00,,,0.00,,2013-02-23 19:01:00,
2013-02-23 11:21:00,60.0,47.0,30.06,WSW,248,4.0,10.0,61,0.00,,,0.00,,2013-02-23 19:21:00,
2013-02-23 11:32:00,60.0,47.0,30.04,WSW,255,6.0,10.0,62,0.00,,,0.00,,2013-02-23 19:32:00,
2013-02-23 11:41:00,60.0,47.0,30.04,WSW,255,6.0,10.0,62,0.00,,,0.00,,2013-02-23 19:41:00,
2013-02-23 11:51:00,59.0,46.0,30.04,SW,220,5.0,9.0,62,0.00,,,0.00,,2013-02-23 19:51:00,
2013-02-23 12:01:00,61.0,47.0,30.03,WSW,248,4.0,9.0,61,0.00,,,0.00,,2013-02-23 20:01:00,
2013-02-23 12:11:00,61.0,47.0,30.03,WSW,248,4.0,9.0,61,0.00,,,0.00,,2013-02-23 20:11:00,
2013-02-23 12:21:00,61.0,47.0,30.03,WSW,248,4.0,9.0,61,0.00,,,0.00,,2013-02-23 20:21:00,
2013-02-23 12:31:00,61.0,46.0,30.01,SW,234,4.0,10.0,58,0.00,,,0.00,,2013-02-23 20:31:00,
2013-02-23 12:41:00,61.0,46.0,30.01,SW,234,4.0,10.0,58,0.00,,,0.00,,2013-02-23 20:41:00,
2013-02-23 12:52:00,61.0,46.0,30.01,SW,234,4.0,10.0,58,0.00,,,0.00,,2013-02-23 20:52:00,
2013-02-23 13:01:00,62.0,46.0,29.99,West,263,5.0,10.0,55,0.00,,,0.00,,2013-02-23 21:01:00,
2013-02-23 13:11:00,62.0,46.0,29.99,West,263,5.0,10.0,55,0.00,,,0.00,,2013-02-23 21:11:00,
2013-02-23 13:22:00,62.0,46.0,29.99,West,263,5.0,10.0,55,0.00,,,0.00,,2013-02-23 21:22:00,
2013-02-23 13:31:00,62.0,45.0,29.98,SW,233,6.0,10.0,54,0.00,,,0.00,,2013-02-23 21:31:00,
2013-02-23 13:41:00,62.0,45.0,29.98,SW,233,6.0,10.0,54,0.00,,,0.00,,2013-02-23 21:41:00,
2013-02-23 13:52:00,62.0,45.0,29.98,SW,233,6.0,10.0,54,0.00,,,0.00,,2013-02-23 21:52:00,
2013-02-23 14:01:00,62.0,45.0,29.95,WSW,248,3.0,8.0,53,0.00,,,0.00,,2013-02-23 22:01:00,
2013-02-23 14:11:00,62.0,45.0,29.95,WSW,248,3.0,8.0,53,0.00,,,0.00,,2013-02-23 22:11:00,
2013-02-23 14:21:00,61.0,47.0,29.95,SSW,202,6.0,11.0,59,0.00,,,0.00,,2013-02-23 22:21:00,
2013-02-23 14:31:00,59.0,46.0,29.94,WSW,246,5.0,11.0,63,0.00,,,0.00,,2013-02-23 22:31:00,
2013-02-23 14:41:00,59.0,46.0,29.94,WSW,246,5.0,11.0,63,0.00,,,0.00,,2013-02-23 22:41:00,
2013-02-23 14:51:00,59.0,46.0,29.94,WSW,246,5.0,11.0,63,0.00,,,0.00,,2013-02-23 22:51:00,
2013-02-23 15:01:00,58.0,47.0,29.93,SW,234,5.0,11.0,68,0.00,,,0.00,,2013-02-23 23:01:00,
2013-02-23 15:11:00,58.0,47.0,29.93,SW,234,5.0,11.0,68,0.00,,,0.00,,2013-02-23 23:11:00,
2013-02-23 15:21:00,59.0,46.0,29.92,SSW,200,5.0,8.0,63,0.00,,,0.00,,2013-02-23 23:21:00,
2013-02-23 15:31:00,59.0,47.0,29.92,SSW,196,4.0,9.0,64,0.00,,,0.00,,2013-02-23 23:31:00,
2013-02-23 15:41:00,59.0,47.0,29.92,SSW,196,4.0,9.0,64,0.00,,,0.00,,2013-02-23 23:41:00,
2013-02-23 15:52:00,57.0,47.0,29.91,SSW,203,3.0,8.0,69,0.00,,,0.00,,2013-02-23 23:52:00,
2013-02-23 16:01:00,57.0,47.0,29.91,SSW,203,3.0,8.0,69,0.00,,,0.00,,2013-02-24 00:01:00,
2013-02-23 16:11:00,57.0,47.0,29.91,SSW,203,3.0,8.0,69,0.00,,,0.00,,2013-02-24 00:11:00,
2013-02-23 16:22:00,57.0,46.0,29.91,SW,218,2.0,8.0,66,0.00,,,0.00,,2013-02-24 00:22:00,
2013-02-23 16:32:00,56.0,46.0,29.91,SSW,194,3.0,7.0,68,0.00,,,0.00,,2013-02-24 00:32:00,
2013-02-23 16:42:00,56.0,46.0,29.91,SSW,194,3.0,7.0,68,0.00,,,0.00,,2013-02-24 00:42:00,
2013-02-23 16:52:00,55.0,44.0,29.90,SSW,192,3.0,7.0,67,0.00,,,0.00,,2013-02-24 00:52:00,
2013-02-23 17:01:00,55.0,45.0,29.90,SSW,210,4.0,7.0,69,0.00,,,0.00,,2013-02-24 01:01:00,
2013-02-23 17:11:00,55.0,45.0,29.90,SSW,210,4.0,7.0,69,0.00,,,0.00,,2013-02-24 01:11:00,
2013-02-23 17:22:00,55.0,45.0,29.90,SSW,210,4.0,7.0,69,0.00,,,0.00,,2013-02-24 01:22:00,
2013-02-23 17:31:00,55.0,45.0,29.90,SSW,210,4.0,7.0,69,0.00,,,0.00,,2013-02-24 01:31:00,
2013-02-23 17:41:00,55.0,45.0,29.90,SSW,210,4.0,7.0,69,0.00,,,0.00,,2013-02-24 01:41:00,
2013-02-23 17:52:00,52.0,47.0,29.91,SW,227,1.0,3.0,83,0.00,,,0.00,,2013-02-24 01:52:00,
2013-02-23 18:01:00,52.0,47.0,29.91,SW,227,1.0,3.0,83,0.00,,,0.00,,2013-02-24 02:01:00,
2013-02-23 18:11:00,52.0,47.0,29.91,SW,227,1.0,3.0,83,0.00,,,0.00,,2013-02-24 02:11:00,
2013-02-23 18:21:00,52.0,47.0,29.91,SW,221,0.0,2.0,84,0.00,,,0.00,,2013-02-24 02:21:00,
2013-02-23 18:32:00,52.0,47.0,29.91,SW,221,0.0,1.0,84,0.00,,,0.00,,2013-02-24 02:32:00,
2013-02-23 18:41:00,52.0,47.0,29.91,SW,221,0.0,1.0,84,0.00,,,0.00,,2013-02-24 02:41:00,
2013-02-23 18:52:00,52.0,47.0,29.91,SW,221,0.0,1.0,84,0.00,,,0.00,,2013-02-24 02:52:00,
2013-02-23 19:01:00,51.0,47.0,29.91,North,355,0.0,3.0,85,0.00,,,0.00,,2013-02-24 03:01:00,
2013-02-23 19:11:00,51.0,47.0,29.91,North,355,0.0,3.0,85,0.00,,,0.00,,2013-02-24 03:11:00,
2013-02-23 19:21:00,51.0,47.0,29.92,North,355,0.0,1.0,86,0.00,,,0.00,,2013-02-24 03:21:00,
2013-02-23 19:31:00,51.0,47.0,29.92,North,355,0.0,2.0,86,0.00,,,0.00,,2013-02-24 03:31:00,
2013-02-23 19:42:00,51.0,47.0,29.92,North,355,0.0,2.0,86,0.00,,,0.00,,2013-02-24 03:42:00,
2013-02-23 19:52:00,51.0,47.0,29.92,North,355,0.0,2.0,86,0.00,,,0.00,,2013-02-24 03:52:00,
2013-02-23 20:01:00,50.0,46.0,29.91,NNE,18,0.0,3.0,87,0.00,,,0.00,,2013-02-24 04:01:00,
2013-02-23 20:11:00,50.0,46.0,29.91,NNE,18,0.0,3.0,87,0.00,,,0.00,,2013-02-24 04:11:00,
2013-02-23 20:21:00,50.0,47.0,29.93,NNE,18,1.0,3.0,88,0.00,,,0.00,,2013-02-24 04:21:00,
2013-02-23 20:31:00,50.0,47.0,29.93,NNE,18,1.0,2.0,88,0.00,,,0.00,,2013-02-24 04:31:00,
2013-02-23 20:41:00,50.0,47.0,29.93,NNE,18,1.0,2.0,88,0.00,,,0.00,,2013-02-24 04:41:00,
2013-02-23 20:51:00,50.0,47.0,29.92,NNE,19,0.0,2.0,89,0.00,,,0.00,,2013-02-24 04:51:00,
2013-02-23 21:01:00,49.0,46.0,29.93,ENE,67,1.0,2.0,89,0.00,,,0.00,,2013-02-24 05:01:00,
2013-02-23 21:11:00,49.0,46.0,29.93,ENE,67,1.0,2.0,89,0.00,,,0.00,,2013-02-24 05:11:00,
2013-02-23 21:21:00,48.0,45.0,29.93,ESE,121,0.0,2.0,90,0.00,,,0.00,,2013-02-24 05:21:00,
2013-02-23 21:32:00,48.0,45.0,29.94,ESE,119,1.0,3.0,91,0.00,,,0.00,,2013-02-24 05:32:00,
2013-02-23 21:41:00,48.0,45.0,29.94,ESE,119,1.0,3.0,91,0.00,,,0.00,,2013-02-24 05:41:00,
2013-02-23 21:52:00,48.0,45.0,29.94,East,87,1.0,3.0,89,0.00,,,0.00,,2013-02-24 05:52:00,
2013-02-23 22:01:00,48.0,45.0,29.94,East,87,0.0,1.0,88,0.00,,,0.00,,2013-02-24 06:01:00,
2013-02-23 22:11:00,48.0,45.0,29.94,East,87,0.0,1.0,88,0.00,,,0.00,,2013-02-24 06:11:00,
2013-02-23 22:21:00,48.0,44.0,29.94,East,87,0.0,2.0,87,0.00,,,0.00,,2013-02-24 06:21:00,
2013-02-23 22:31:00,48.0,44.0,29.93,SSE,149,2.0,3.0,85,0.00,,,0.00,,2013-02-24 06:31:00,
2013-02-23 22:41:00,48.0,44.0,29.93,SSE,149,2.0,3.0,85,0.00,,,0.00,,2013-02-24 06:41:00,
2013-02-23 22:52:00,48.0,43.0,29.94,SSE,149,0.0,2.0,83,0.00,,,0.00,,2013-02-24 06:52:00,
2013-02-23 23:01:00,47.0,43.0,29.94,NNE,18,0.0,3.0,85,0.00,,,0.00,,2013-02-24 07:01:00,
2013-02-23 23:11:00,47.0,43.0,29.94,NNE,18,0.0,3.0,85,0.00,,,0.00,,2013-02-24 07:11:00,
2013-02-23 23:21:00,48.0,43.0,29.95,NNE,21,0.0,3.0,84,0.00,,,0.00,,2013-02-24 07:21:00,
2013-02-23 23:31:00,48.0,43.0,29.95,WNW,297,2.0,5.0,84,0.00,,,0.00,,2013-02-24 07:31:00,
2013-02-23 23:41:00,48.0,43.0,29.95,WNW,297,2.0,5.0,84,0.00,,,0.00,,2013-02-24 07:41:00,
2013-02-23 23:51:00,47.0,42.0,29.95,WNW,298,1.0,2.0,84,0.00,,,0.00,,2013-02-24 07:51:00,